Date,TemperatureHighF,TemperatureAvgF,TemperatureLowF,DewpointHighF,DewpointAvgF,DewpointLowF,HumidityHigh,HumidityAvg,HumidityLow,PressureMaxIn,PressureMinIn,WindSpeedMaxMPH,WindSpeedAvgMPH,GustSpeedMaxMPH,PrecipitationSumIn
2013-3-1,28.9,26.1,23.1,28.0,24.6,22.0,95,94,90,29.71,29.55,9,4,15,0.00
2013-3-2,25.4,23.6,21.6,24.0,22.2,20.0,95,94,93,29.73,29.68,8,3,14,0.00
2013-3-3,25.7,21.6,18.9,24.0,20.0,17.0,94,93,92,29.70,29.62,6,2,9,0.00
2013-3-4,19.4,17.8,16.7,18.0,15.8,15.0,94,92,88,29.88,29.62,3,0,10,0.00
2013-3-5,32.3,25.1,17.3,30.0,23.4,16.0,96,93,91,30.14,29.88,10,2,18,0.00
2013-3-6,30.9,27.8,23.2,28.0,24.0,19.0,94,85,75,30.24,30.14,22,10,27,0.00
2013-3-7,26.3,23.7,21.6,21.0,19.6,18.0,87,84,79,30.24,30.16,17,8,25,0.00
2013-3-8,38.7,28.3,19.7,23.0,20.2,16.0,90,74,40,30.31,30.14,13,4,17,0.01
2013-3-9,43.5,27.2,8.5,23.0,16.9,6.0,91,69,35,30.40,30.28,11,2,15,0.06
2013-3-10,49.4,38.0,28.6,25.0,21.3,18.0,70,53,29,30.38,30.16,12,4,18,0.00
2013-3-11,52.8,42.5,34.4,29.0,25.2,22.0,74,52,33,30.18,29.98,16,4,21,0.00
2013-3-12,45.1,41.5,34.3,42.0,34.9,17.0,96,80,32,29.99,29.68,18,7,26,0.45
2013-3-13,33.9,30.3,24.4,33.0,27.5,22.0,96,89,77,29.77,29.70,8,3,11,0.03
2013-3-14,25.8,18.8,7.6,23.0,14.7,3.0,91,84,75,29.81,29.66,14,4,17,0.01
2013-3-15,24.9,15.1,5.5,20.0,8.8,2.0,91,78,42,29.82,29.63,10,3,16,0.00
2013-3-16,18.0,13.6,0.5,16.0,8.8,-3.0,91,81,69,29.92,29.70,11,4,16,0.00
2013-3-17,15.1,7.8,-2.5,7.0,-0.5,-6.0,90,71,48,30.35,29.91,16,4,24,0.00
2013-3-18,24.7,15.3,4.4,4.0,-2.0,-5.0,66,48,32,30.46,30.25,13,4,19,0.00
2013-3-19,22.2,19.0,16.7,18.0,14.7,2.0,91,84,41,30.24,29.76,35,18,45,0.00
2013-3-20,23.7,20.1,15.9,20.0,17.5,14.0,92,89,83,29.75,29.63,13,3,20,0.00
2013-3-21,28.6,20.6,8.9,18.0,13.3,6.0,90,74,52,29.72,29.64,9,2,15,0.11
2013-3-22,25.1,16.6,5.3,19.0,12.4,3.0,92,83,69,29.71,29.66,11,3,22,0.00
2013-3-23,25.7,22.7,18.2,23.0,20.3,16.0,93,90,85,29.75,29.55,16,7,25,0.00
2013-3-24,29.8,26.1,17.8,26.0,23.6,16.0,94,90,82,29.84,29.73,10,4,16,0.01
2013-3-25,35.8,26.8,9.5,26.0,20.4,7.0,95,78,58,29.82,29.64,15,4,17,0.04
2013-3-26,33.5,28.8,19.3,25.0,22.6,17.0,93,78,68,29.78,29.64,12,5,18,0.00
2013-3-27,33.2,29.7,25.2,30.0,26.2,22.0,96,87,75,29.92,29.75,13,4,16,0.01
2013-3-28,37.9,32.8,29.1,33.0,30.2,28.0,96,90,78,30.04,29.90,9,3,14,0.06
2013-3-29,39.8,35.0,31.8,33.0,30.6,27.0,96,84,65,30.04,29.98,11,4,18,0.03
2013-3-30,39.1,32.3,21.5,29.0,20.4,13.0,92,65,36,30.10,30.02,11,3,17,0.00
2013-3-31,47.1,33.8,15.4,27.0,18.1,13.0,90,57,32,30.10,29.78,15,4,23,0.00